TITAN 3C TRANSTAGE DEB, 13906

Orbit data source: Space-Track

TITAN 3C TRANSTAGE DEB, 13906 is space debris in HEO originally from a launch on Tue, 21 Dec 1965 UTC launched from the Air Force Eastern Test Range (AFETR). Debris objects in space refer to the collection of defunct objects orbiting the Earth. Examples of debris include non-operational satellites, rocket bodies, and fragments generated from explosions, collisions, or faulty payload assembly.

Loading next visibility...
Identifier
13906, 1965-108U
Orbit
HEO
Country
Flag of USUS
Related business
Manufacturer
Unknown
Mission
Spacecraft
Bus & Motor
Unknown
Mass
Unknown
Launch date (UTC)
1965-12-21 (60 years ago)
Launch vehicle
Unknown
Launch site
Air Force Eastern Test Range (AFETR)
Object type
Payload
Rocket body
Debris
Shape & HBR
Unknown shape, 0.5 m
Radar Cross Section
Medium (>0.1 m² and <1 m²)

Expand to show TLE details & history
Last TLE update: 1 day ago

TLE from 1 day ago
0 TITAN 3C TRANSTAGE DEB
1 13906U 65108U   26132.61447641  .00000354  00000-0  25286-2 0  9993
2 13906  26.3693 278.9527 6748146 204.0327  86.2247  2.78120611342381
Epoch: 2026-05-12T14:44Z
TLE epoch observation values (Epoch: 2026-05-12T14:44:50.761Z)
Latitude
-2.08901°
Longitude
-176.87625°
Altitude
22,129.154 km
Speed
3.05 km/s
True Right ascension
18h 18m 53s
True Declination
-2° 05' 09"
Sunlit
Object was in daylight at epoch
Visualization orbit readout
Latitude
Unknown
Longitude
Unknown
Altitude
Unknown
Speed
Unknown
Apparent Right ascension
Unknown
Apparent Declination
Unknown
Sunlit
N/A
Visualization observer readout
Local Sidereal Time
23:51:12
Azimuth
Unknown
Elevation
Unknown
Doppler factor
Unknown
Orbital elements
Apogee altitude
29,400.202 km
Perigee altitude
568.658 km
Semi-major axis
21,362.567 km
Eccentricity
0.67481
Inclination
26.3693°
RAAN
278.9527°
Arg. of periapsis
204.0327°
True anomaly
151.33281°
Mean anomaly
86.2247°
Eccentric anomaly
119.78203°
Mean motion
0.69513 °/min
Orbital period
517.89 mins
BSTAR
0.0025286
Loading maneuver chart data...
Computing Atmospheric mass density...

Documentation

Showing up to 5 results
|